Flag for Canada Weather past 2 weeks in Pictou County, Nova Scotia, Canada

Now
20 °F

Cold.


Feels Like: 20 °F
Forecast: 13 / 20 °F
Wind: No wind

Location: Caribou Point

Current Time: Jan 29, 2015 at 3:12:10 PM

Latest Report: Jan 29, 2015 at 2:00 PM


Visibility: N/A

Pressure: 30.21 "Hg

Humidity: 85%

Dew point: 16 °F

Location of Pictou CountyLocation

Historic Weather in Pictou County — Graph

°F

Pictou County temperature yesterday

Maximum temperature yesterday: 30 °F (at 4:00 PM)
Minimum temperature yesterday: 23 °F (at 11:00 PM)
Average temperature yesterday: 28 °F

Past Weeks' High & Low Weather Summary

 TemperatureHumidityPressure
High49 °F (Jan 25, 3:00 AM)100% (Jan 19, 11:00 PM)30.44 "Hg (Jan 19, 11:00 PM)
Low0 °F (Jan 17, 8:00 AM)48% (Jan 20, 2:00 PM)28.48 "Hg (Jan 25, 4:00 AM)
Average24 °F80%29.85 "Hg
* Reported Jan 14 1:00 PM — Jan 29 1:00 PM, Pictou County, Weather by CustomWeather, © 2014

Note: Actual official high and low records may vary slightly from our data, if they occured in-between our weather recording intervals... More about our weather records

Advertising

Pictou County weather history for previous 24 hours

 ConditionsComfort  
Time TempWeatherWind HumidityBarometerVisibility
1:00 PM
Jan 29
20 °FCold.No wind85%30.23 "HgN/A
12:00 PM20 °FCold.No wind81%30.24 "HgN/A
11:00 AM20 °FCold.No wind80%30.24 "HgN/A
10:00 AM19 °FCold.No wind83%30.24 "HgN/A
9:00 AM19 °FCold.1 mph87%30.19 "HgN/A
8:00 AM16 °FCold.1 mph90%30.14 "HgN/A
7:00 AM18 °FCold.1 mph90%30.14 "HgN/A
6:00 AM20 °FCold.2 mph85%30.12 "HgN/A
5:00 AM20 °FCold.1 mph87%30.10 "HgN/A
4:00 AM21 °FCold.1 mph87%30.06 "HgN/A
3:00 AM21 °FCold.1 mph89%30.02 "HgN/A
2:00 AM22 °FCold.1 mph90%29.98 "HgN/A
1:00 AM22 °FCold.2 mph89%29.95 "HgN/A
12:00 AM22 °FCold.2 mph98%29.93 "HgN/A
11:00 PM
Jan 28
23 °FCold.2 mph94%29.90 "HgN/A
10:00 PM24 °FCold.2 mph93%29.85 "HgN/A
9:00 PM24 °FCold.1 mph94%29.82 "HgN/A
8:00 PM25 °FChilly.1 mph94%29.78 "HgN/A
7:00 PM26 °FChilly.1 mph95%29.75 "HgN/A
6:00 PM28 °FChilly.No wind94%29.70 "HgN/A
5:00 PM29 °FChilly.No wind96%29.66 "HgN/A
4:00 PM30 °FChilly.No wind96%29.63 "HgN/A
Weather by CustomWeather, © 2014

See weather overviewHow to use our weather pages